Location: ??
(35.1714°N, 128.2806°E)
Time: 15:42:40
(UTC+00:00)

Cosmos 1954 Rocket - Pass Details

Date: 29 October 2020
Orbit: 752 x 781 km, 74.1° (Epoch: 30 November)

Event Time Altitude Azimuth Distance (km) Brightness Sun altitude
Rises 21:15:10 0° 200° (SSW) 3,195 7.1 -7.0°
Reaches altitude 10° 21:17:32 10° 203° (SSW) 2,271 6.4 -6.5°
Maximum altitude 21:22:40 74° 288° (WNW) 785 3.9 -5.5°
Drops below altitude 10° 21:27:49 10° 13° (NNE) 2,279 6.5 -4.5°
Sets 21:30:12 0° 16° (NNE) 3,207 7.2 -4.0°
